EVA806 VMMC-RCTP

Flight info

Callsign EVA806
Flight time N/A
Altitude 41000
Route CONGA2P CONGA V631 ENVAR M750 EXTRA/N0513F290 M750 TONGA TONGA1B
Aircraft A359/H-SDE2E3GHIJ3J4J5LM1ORWXY/LB1D1

Departure

Time 2026-04-22 14:29
Airport Macau International Airport (VMMC)

Arrival

Time N/A
Airport Taiwan Taoyuan International Airport (RCTP)
Time Latitude Longitude Altitude Speed Heading
2026-04-22 13:59 22.15921 113.57642 34 ft 0 kts 284°
2026-04-22 14:17 22.15915 113.57664 33 ft 4 kts 292°
2026-04-22 14:17 22.15902 113.57689 31 ft 4 kts 311°
2026-04-22 14:17 22.15883 113.57706 31 ft 4 kts 352°
2026-04-22 14:17 22.15871 113.57706 31 ft 0 kts 16°
2026-04-22 14:22 22.15878 113.57708 30 ft 4 kts 15°
2026-04-22 14:22 22.16012 113.57744 34 ft 13 kts 15°
2026-04-22 14:23 22.16090 113.57788 34 ft 13 kts 58°
2026-04-22 14:23 22.16127 113.57886 34 ft 15 kts 72°
2026-04-22 14:23 22.16166 113.58005 34 ft 18 kts 71°
2026-04-22 14:23 22.16211 113.58143 34 ft 21 kts 71°
2026-04-22 14:24 22.16258 113.58298 34 ft 23 kts 72°
2026-04-22 14:24 22.16307 113.58449 34 ft 11 kts 71°
2026-04-22 14:24 22.16308 113.58452 34 ft 0 kts 71°
2026-04-22 14:27 22.16311 113.58463 34 ft 4 kts 69°
2026-04-22 14:27 22.16333 113.58527 35 ft 14 kts 71°
2026-04-22 14:28 22.16325 113.58632 36 ft 11 kts 137°
2026-04-22 14:28 22.16259 113.58660 36 ft 13 kts 161°
2026-04-22 14:28 22.15958 113.58766 35 ft 82 kts 161°
2026-04-22 14:28 22.15198 113.59044 35 ft 146 kts 162°
2026-04-22 14:29 22.14177 113.59424 605 ft 151 kts 162°
2026-04-22 14:29 22.13194 113.59814 1053 ft 152 kts 163°
2026-04-22 14:29 22.12142 113.60213 1307 ft 168 kts 165°
2026-04-22 14:29 22.10991 113.60638 1615 ft 182 kts 165°
2026-04-22 14:30 22.09738 113.61100 1841 ft 203 kts 165°
2026-04-22 14:30 22.08331 113.61624 2066 ft 224 kts 164°
2026-04-22 14:30 22.06801 113.62197 2421 ft 239 kts 164°
2026-04-22 14:30 22.05212 113.62797 2988 ft 245 kts 164°
2026-04-22 14:31 22.03589 113.63410 3560 ft 250 kts 164°
2026-04-22 14:31 22.01936 113.64032 4155 ft 254 kts 164°
2026-04-22 14:31 22.00253 113.64665 4747 ft 258 kts 164°
2026-04-22 14:31 21.98545 113.65306 5309 ft 262 kts 165°
2026-04-22 14:32 21.96794 113.65948 5839 ft 268 kts 166°
2026-04-22 14:32 21.95006 113.66593 6345 ft 274 kts 166°
2026-04-22 14:32 21.93179 113.67252 6868 ft 278 kts 166°
2026-04-22 14:32 21.91363 113.67908 7444 ft 279 kts 166°
2026-04-22 14:33 21.89510 113.68576 7983 ft 282 kts 166°
2026-04-22 14:33 21.87633 113.69253 8509 ft 286 kts 165°
2026-04-22 14:33 21.85737 113.69936 9063 ft 289 kts 165°
2026-04-22 14:33 21.83817 113.70627 9604 ft 292 kts 165°
2026-04-22 14:34 21.82533 113.71090 9949 ft 295 kts 165°
2026-04-22 14:34 21.80550 113.71802 10245 ft 307 kts 165°
2026-04-22 14:34 21.78477 113.72546 10465 ft 321 kts 165°
2026-04-22 14:34 21.76319 113.73320 10670 ft 334 kts 165°
2026-04-22 14:35 21.74074 113.74127 10876 ft 345 kts 165°
2026-04-22 14:35 21.71754 113.74962 11077 ft 357 kts 165°
2026-04-22 14:35 21.69375 113.75818 11369 ft 363 kts 165°
2026-04-22 14:35 21.66965 113.76698 11747 ft 367 kts 163°
2026-04-22 14:36 21.64613 113.77824 12125 ft 374 kts 154°
2026-04-22 14:36 21.62460 113.79428 12508 ft 380 kts 142°
2026-04-22 14:36 21.60651 113.81481 12882 ft 387 kts 129°
2026-04-22 14:36 21.59242 113.83963 13272 ft 392 kts 117°
2026-04-22 14:37 21.58342 113.86742 13646 ft 396 kts 104°
2026-04-22 14:37 21.57980 113.89689 14002 ft 399 kts 94°
2026-04-22 14:37 21.57868 113.92679 14352 ft 401 kts 92°
2026-04-22 14:37 21.57787 113.95684 14702 ft 404 kts 92°
2026-04-22 14:38 21.57699 113.98705 15046 ft 406 kts 92°
2026-04-22 14:38 21.57601 114.01749 15392 ft 408 kts 92°
2026-04-22 14:38 21.57497 114.04807 15746 ft 410 kts 92°
2026-04-22 14:38 21.57389 114.07887 16078 ft 412 kts 92°
2026-04-22 14:39 21.57279 114.10972 16429 ft 414 kts 92°
2026-04-22 14:39 21.57167 114.14070 16765 ft 416 kts 92°
2026-04-22 14:39 21.57053 114.17186 17076 ft 418 kts 92°
2026-04-22 14:40 21.56823 114.23448 17634 ft 425 kts 92°
2026-04-22 14:40 21.56704 114.26627 17961 ft 427 kts 92°
2026-04-22 14:40 21.56585 114.29824 18270 ft 429 kts 92°
2026-04-22 14:40 21.56464 114.33034 18535 ft 431 kts 92°
2026-04-22 14:41 21.56342 114.36262 18806 ft 433 kts 92°
2026-04-22 14:41 21.56219 114.39499 19075 ft 434 kts 92°
2026-04-22 14:41 21.56095 114.42745 19378 ft 435 kts 92°
2026-04-22 14:41 21.55970 114.45998 19648 ft 437 kts 92°
2026-04-22 14:42 21.55843 114.49267 19906 ft 439 kts 92°
2026-04-22 14:42 21.55716 114.52551 20164 ft 441 kts 92°
2026-04-22 14:42 21.55587 114.55852 20430 ft 442 kts 92°
2026-04-22 14:42 21.55458 114.59158 20689 ft 444 kts 92°
2026-04-22 14:43 21.55328 114.62445 20938 ft 446 kts 92°
2026-04-22 14:43 21.55195 114.65820 21199 ft 448 kts 92°
2026-04-22 14:43 21.55063 114.69127 21457 ft 450 kts 92°
2026-04-22 14:43 21.54929 114.72492 21715 ft 452 kts 92°
2026-04-22 14:44 21.54792 114.75882 21957 ft 454 kts 92°
2026-04-22 14:44 21.54656 114.79271 22203 ft 456 kts 92°
2026-04-22 14:44 21.54517 114.82682 22447 ft 457 kts 92°
2026-04-22 14:44 21.54377 114.86106 22696 ft 459 kts 92°
2026-04-22 14:45 21.54237 114.89539 22930 ft 461 kts 92°
2026-04-22 14:45 21.54096 114.92946 23174 ft 463 kts 92°
2026-04-22 14:45 21.53951 114.96452 23397 ft 465 kts 93°
2026-04-22 14:45 21.53808 114.99881 23613 ft 466 kts 93°
2026-04-22 14:46 21.53663 115.03363 23829 ft 467 kts 93°
2026-04-22 14:46 21.53516 115.06853 24074 ft 468 kts 92°
2026-04-22 14:46 21.53369 115.10351 24266 ft 470 kts 92°
2026-04-22 14:46 21.53292 115.13862 24454 ft 471 kts 88°
2026-04-22 14:47 21.53561 115.17373 24644 ft 473 kts 82°
2026-04-22 14:47 21.53995 115.20876 24842 ft 474 kts 81°
2026-04-22 14:47 21.54453 115.24392 25042 ft 476 kts 81°
2026-04-22 14:47 21.54910 115.27915 25234 ft 477 kts 81°
2026-04-22 14:48 21.55365 115.31456 25447 ft 479 kts 81°
2026-04-22 14:48 21.55819 115.35008 25644 ft 480 kts 81°
2026-04-22 14:48 21.56273 115.38572 25839 ft 482 kts 81°
2026-04-22 14:48 21.56727 115.42149 26050 ft 484 kts 81°
2026-04-22 14:49 21.57180 115.45734 26264 ft 485 kts 81°
2026-04-22 14:49 21.57635 115.49333 26470 ft 487 kts 81°
2026-04-22 14:49 21.58085 115.52902 26689 ft 489 kts 81°
2026-04-22 14:49 21.58541 115.56527 26892 ft 490 kts 81°
2026-04-22 14:50 21.58997 115.60160 27112 ft 492 kts 81°
2026-04-22 14:50 21.59455 115.63817 27321 ft 494 kts 81°
2026-04-22 14:50 21.59913 115.67473 27577 ft 494 kts 81°
2026-04-22 14:50 21.60371 115.71145 27828 ft 496 kts 81°
2026-04-22 14:51 21.60830 115.74823 28036 ft 498 kts 81°
2026-04-22 14:51 21.61289 115.78515 28256 ft 500 kts 81°
2026-04-22 14:51 21.61750 115.82227 28424 ft 503 kts 81°
2026-04-22 14:51 21.62214 115.85968 28603 ft 506 kts 81°
2026-04-22 14:52 21.62678 115.89721 28834 ft 507 kts 81°
2026-04-22 14:52 21.63143 115.93483 29065 ft 509 kts 81°
2026-04-22 14:52 21.63608 115.97262 29314 ft 510 kts 81°
2026-04-22 14:52 21.64074 116.01044 29590 ft 511 kts 81°
2026-04-22 14:53 21.64539 116.04832 29820 ft 513 kts 81°
2026-04-22 14:53 21.65006 116.08644 30037 ft 515 kts 81°
2026-04-22 14:53 21.65473 116.12462 30246 ft 517 kts 81°
2026-04-22 14:53 21.65941 116.16300 30451 ft 518 kts 81°
2026-04-22 14:54 21.66403 116.20093 30664 ft 520 kts 81°
2026-04-22 14:54 21.66872 116.23949 30892 ft 521 kts 81°
2026-04-22 14:54 21.67343 116.27830 31113 ft 523 kts 81°
2026-04-22 14:54 21.67813 116.31713 31369 ft 523 kts 81°
2026-04-22 14:55 21.68283 116.35601 31588 ft 525 kts 81°
2026-04-22 14:55 21.68753 116.39496 31767 ft 526 kts 81°
2026-04-22 14:55 21.69223 116.43403 31968 ft 528 kts 81°
2026-04-22 14:55 21.69694 116.47322 32158 ft 529 kts 82°
2026-04-22 14:56 21.70166 116.51258 32350 ft 531 kts 82°
2026-04-22 14:56 21.70638 116.55199 32528 ft 532 kts 82°
2026-04-22 14:56 21.71111 116.59155 32711 ft 534 kts 82°
2026-04-22 14:56 21.71583 116.63118 32900 ft 535 kts 82°
2026-04-22 14:57 21.72056 116.67096 33067 ft 536 kts 82°
2026-04-22 14:57 21.72528 116.71078 33281 ft 537 kts 82°
2026-04-22 14:57 21.73003 116.75053 33551 ft 536 kts 82°
2026-04-22 14:57 21.73729 116.78980 33798 ft 534 kts 73°
2026-04-22 14:58 21.74891 116.82774 34040 ft 534 kts 69°
2026-04-22 14:58 21.76188 116.86514 34271 ft 533 kts 68°
2026-04-22 14:58 21.77544 116.90222 34483 ft 533 kts 67°
2026-04-22 14:58 21.78921 116.93924 34717 ft 533 kts 67°
2026-04-22 14:59 21.80278 116.97576 35008 ft 532 kts 67°
2026-04-22 14:59 21.81638 117.01264 35312 ft 530 kts 67°
2026-04-22 14:59 21.82988 117.04959 35612 ft 529 kts 67°
2026-04-22 14:59 21.84324 117.08640 35917 ft 528 kts 67°
2026-04-22 15:00 21.85654 117.12323 36196 ft 527 kts 67°
2026-04-22 15:00 21.86980 117.16004 36486 ft 526 kts 67°
2026-04-22 15:00 21.88300 117.19675 36783 ft 525 kts 67°
2026-04-22 15:00 21.89615 117.23333 37121 ft 523 kts 67°
2026-04-22 15:01 21.90926 117.26986 37454 ft 521 kts 67°
2026-04-22 15:01 21.92233 117.30625 37757 ft 520 kts 67°
2026-04-22 15:01 21.93536 117.34256 38077 ft 519 kts 67°
2026-04-22 15:01 21.94836 117.37882 38316 ft 519 kts 67°
2026-04-22 15:02 21.96141 117.41522 38537 ft 520 kts 67°
2026-04-22 15:02 21.97440 117.45150 38777 ft 519 kts 67°
2026-04-22 15:02 21.98776 117.48708 38986 ft 517 kts 63°
2026-04-22 15:02 22.00449 117.52115 39252 ft 513 kts 58°
2026-04-22 15:03 22.02243 117.55435 39492 ft 512 kts 57°
2026-04-22 15:03 22.04080 117.58722 39677 ft 512 kts 56°
2026-04-22 15:03 22.05942 117.61996 39847 ft 512 kts 56°
2026-04-22 15:03 22.07811 117.65262 40057 ft 511 kts 56°
2026-04-22 15:04 22.09682 117.68534 40221 ft 511 kts 56°
2026-04-22 15:04 22.11545 117.71800 40408 ft 511 kts 56°
2026-04-22 15:04 22.13402 117.75065 40573 ft 511 kts 56°
2026-04-22 15:04 22.15261 117.78341 40750 ft 511 kts 56°
2026-04-22 15:05 22.18979 117.84912 40889 ft 514 kts 56°
2026-04-22 15:05 22.22674 117.91454 40919 ft 513 kts 56°
2026-04-22 15:06 22.26385 117.98035 40915 ft 513 kts 56°
2026-04-22 15:06 22.30135 118.04592 40912 ft 512 kts 55°
2026-04-22 15:07 22.33940 118.11097 40910 ft 512 kts 55°
2026-04-22 15:07 22.37746 118.17600 40903 ft 511 kts 54°
2026-04-22 15:08 22.41536 118.24131 40905 ft 514 kts 55°
2026-04-22 15:08 22.45252 118.30681 40906 ft 514 kts 56°
2026-04-22 15:09 22.48977 118.37286 40898 ft 514 kts 56°
2026-04-22 15:09 22.52704 118.43892 40911 ft 514 kts 55°
2026-04-22 15:10 22.56431 118.50494 40899 ft 513 kts 55°
2026-04-22 15:10 22.60178 118.57077 40899 ft 513 kts 55°
2026-04-22 15:11 22.63902 118.63613 40897 ft 513 kts 55°
2026-04-22 15:11 22.67645 118.70192 40898 ft 513 kts 55°
2026-04-22 15:12 22.71386 118.76777 40896 ft 513 kts 55°